Time,TemperatureF,DewpointF,PressureIn,WindDirection,WindDirectionDegrees,WindSpeedMPH,WindSpeedGustMPH,Humidity,HourlyPrecipIn,Conditions,Clouds,dailyrainin,SoftwareType,DateUTC
2013-04-01 00:02:00,42.3,32.1,29.50,NNW,333,0.0,7.0,67,0.00,,,0.00,Wunderground v.1.15,2013-04-01 05:02:00,
2013-04-01 00:07:00,42.2,31.6,29.50,NNW,344,7.0,12.0,66,0.00,,,0.00,Wunderground v.1.15,2013-04-01 05:07:00,
2013-04-01 00:13:00,42.2,31.3,29.51,NNW,344,7.0,9.0,65,0.00,,,0.00,Wunderground v.1.15,2013-04-01 05:13:00,
2013-04-01 00:18:00,42.1,30.8,29.50,NW,309,5.0,13.0,64,0.00,,,0.00,Wunderground v.1.15,2013-04-01 05:18:00,
2013-04-01 00:23:00,42.0,30.7,29.50,North,355,6.0,13.0,64,0.00,,,0.00,Wunderground v.1.15,2013-04-01 05:23:00,
2013-04-01 00:28:00,42.0,30.7,29.50,North,360,5.0,18.0,64,0.00,,,0.00,Wunderground v.1.15,2013-04-01 05:28:00,
2013-04-01 00:33:00,41.8,30.5,29.51,NW,317,6.0,14.0,64,0.00,,,0.00,Wunderground v.1.15,2013-04-01 05:33:00,
2013-04-01 00:38:00,41.7,30.0,29.51,North,349,5.0,15.0,63,0.00,,,0.00,Wunderground v.1.15,2013-04-01 05:38:00,
2013-04-01 00:43:00,41.7,30.0,29.51,WNW,303,6.0,17.0,63,0.00,,,0.00,Wunderground v.1.15,2013-04-01 05:43:00,
2013-04-01 00:48:00,41.7,29.6,29.51,NW,306,13.0,19.0,62,0.00,,,0.00,Wunderground v.1.15,2013-04-01 05:48:00,
2013-04-01 00:53:00,41.6,29.9,29.52,NNW,346,8.0,15.0,63,0.00,,,0.00,Wunderground v.1.15,2013-04-01 05:53:00,
2013-04-01 00:58:00,41.6,29.9,29.52,NNW,332,5.0,15.0,63,0.00,,,0.00,Wunderground v.1.15,2013-04-01 05:58:00,
2013-04-01 01:03:00,41.5,29.8,29.52,North,355,9.0,17.0,63,0.00,,,0.00,Wunderground v.1.15,2013-04-01 06:03:00,
2013-04-01 01:08:00,41.5,29.8,29.53,North,5,11.0,17.0,63,0.00,,,0.00,Wunderground v.1.15,2013-04-01 06:08:00,
2013-04-01 01:13:00,41.4,29.7,29.53,North,355,7.0,15.0,63,0.00,,,0.00,Wunderground v.1.15,2013-04-01 06:13:00,
2013-04-01 01:18:00,41.3,29.6,29.52,North,355,19.0,19.0,63,0.00,,,0.00,Wunderground v.1.15,2013-04-01 06:18:00,
2013-04-01 01:23:00,41.2,29.5,29.53,WNW,300,11.0,16.0,63,0.00,,,0.00,Wunderground v.1.15,2013-04-01 06:23:00,
2013-04-01 01:28:00,41.2,29.5,29.53,NW,322,11.0,16.0,63,0.00,,,0.00,Wunderground v.1.15,2013-04-01 06:28:00,
2013-04-01 01:33:00,41.1,29.8,29.53,NW,322,9.0,20.0,64,0.00,,,0.00,Wunderground v.1.15,2013-04-01 06:33:00,
2013-04-01 01:38:00,41.0,29.7,29.54,NW,308,5.0,20.0,64,0.00,,,0.00,Wunderground v.1.15,2013-04-01 06:38:00,
2013-04-01 01:43:00,40.8,29.6,29.54,NW,306,8.0,23.0,64,0.00,,,0.00,Wunderground v.1.15,2013-04-01 06:43:00,
2013-04-01 01:48:00,40.4,29.6,29.53,NW,306,6.0,23.0,65,0.00,,,0.00,Wunderground v.1.15,2013-04-01 06:48:00,
2013-04-01 01:53:00,40.2,29.4,29.54,NNW,343,9.0,23.0,65,0.00,,,0.00,Wunderground v.1.15,2013-04-01 06:53:00,
2013-04-01 01:58:00,40.5,-99.9,29.54,North,360,4.0,23.0,255,0.00,,,0.00,Wunderground v.1.15,2013-04-01 06:58:00,
2013-04-01 02:03:00,40.1,29.3,29.55,NW,304,9.0,17.0,65,0.00,,,0.00,Wunderground v.1.15,2013-04-01 07:03:00,
2013-04-01 02:08:00,40.0,29.6,29.54,NNW,344,14.0,17.0,66,0.00,,,0.00,Wunderground v.1.15,2013-04-01 07:08:00,
2013-04-01 02:13:00,39.9,29.1,29.54,NNW,333,4.0,12.0,65,0.00,,,0.00,Wunderground v.1.15,2013-04-01 07:13:00,
2013-04-01 02:18:00,39.8,28.2,29.55,NW,305,6.0,16.0,63,0.00,,,0.00,Wunderground v.1.15,2013-04-01 07:18:00,
2013-04-01 02:23:00,39.7,27.3,29.55,North,5,10.0,16.0,61,0.00,,,0.00,Wunderground v.1.15,2013-04-01 07:23:00,
2013-04-01 02:28:00,39.7,26.9,29.55,NW,317,12.0,17.0,60,0.00,,,0.00,Wunderground v.1.15,2013-04-01 07:28:00,
2013-04-01 02:33:00,39.6,26.8,29.54,NW,315,9.0,15.0,60,0.00,,,0.00,Wunderground v.1.15,2013-04-01 07:33:00,
2013-04-01 02:38:00,39.6,26.8,29.55,WNW,297,8.0,19.0,60,0.00,,,0.00,Wunderground v.1.15,2013-04-01 07:38:00,
2013-04-01 02:43:00,39.5,26.3,29.55,North,355,5.0,15.0,59,0.00,,,0.00,Wunderground v.1.15,2013-04-01 07:43:00,
2013-04-01 02:48:00,39.4,25.4,29.55,NNE,29,9.0,19.0,57,0.00,,,0.00,Wunderground v.1.15,2013-04-01 07:48:00,
2013-04-01 02:53:00,39.4,24.6,29.55,NW,322,6.0,18.0,55,0.00,,,0.00,Wunderground v.1.15,2013-04-01 07:53:00,
2013-04-01 02:58:00,39.2,23.9,29.55,NNW,348,7.0,18.0,54,0.00,,,0.00,Wunderground v.1.15,2013-04-01 07:58:00,
2013-04-01 03:03:00,39.1,23.8,29.54,WNW,287,5.0,19.0,54,0.00,,,0.00,Wunderground v.1.15,2013-04-01 08:03:00,
2013-04-01 03:08:00,38.9,23.7,29.55,WNW,287,6.0,19.0,54,0.00,,,0.00,Wunderground v.1.15,2013-04-01 08:08:00,
2013-04-01 03:13:00,38.8,24.0,29.55,NNW,344,7.0,13.0,55,0.00,,,0.00,Wunderground v.1.15,2013-04-01 08:13:00,
2013-04-01 03:18:00,38.6,24.2,29.56,NNW,342,6.0,23.0,56,0.00,,,0.00,Wunderground v.1.15,2013-04-01 08:18:00,
2013-04-01 03:23:00,38.4,24.1,29.55,NNW,336,7.0,18.0,56,0.00,,,0.00,Wunderground v.1.15,2013-04-01 08:23:00,
2013-04-01 03:28:00,38.3,24.0,29.56,North,5,4.0,18.0,56,0.00,,,0.00,Wunderground v.1.15,2013-04-01 08:28:00,
2013-04-01 03:33:00,38.0,24.5,29.57,North,355,10.0,19.0,58,0.00,,,0.00,Wunderground v.1.15,2013-04-01 08:33:00,
2013-04-01 03:38:00,37.6,24.6,29.57,NNW,336,4.0,19.0,59,0.00,,,0.00,Wunderground v.1.15,2013-04-01 08:38:00,
2013-04-01 03:43:00,37.3,23.4,29.57,North,355,6.0,18.0,57,0.00,,,0.00,Wunderground v.1.15,2013-04-01 08:43:00,
2013-04-01 03:48:00,37.1,22.8,29.57,NW,308,9.0,18.0,56,0.00,,,0.00,Wunderground v.1.15,2013-04-01 08:48:00,
2013-04-01 03:53:00,37.1,22.8,29.58,NNW,344,6.0,16.0,56,0.00,,,0.00,Wunderground v.1.15,2013-04-01 08:53:00,
2013-04-01 03:58:00,37.0,22.3,29.58,NW,309,9.0,20.0,55,0.00,,,0.00,Wunderground v.1.15,2013-04-01 08:58:00,
2013-04-01 04:03:00,36.9,22.7,29.58,NNW,327,6.0,18.0,56,0.00,,,0.00,Wunderground v.1.15,2013-04-01 09:03:00,
2013-04-01 04:08:00,36.8,22.6,29.58,NNW,343,6.0,18.0,56,0.00,,,0.00,Wunderground v.1.15,2013-04-01 09:08:00,
2013-04-01 04:13:00,36.8,23.0,29.58,NW,305,6.0,14.0,57,0.00,,,0.00,Wunderground v.1.15,2013-04-01 09:13:00,
2013-04-01 04:18:00,36.7,22.9,29.58,NNW,336,2.0,14.0,57,0.00,,,0.00,Wunderground v.1.15,2013-04-01 09:18:00,
2013-04-01 04:23:00,36.6,23.2,29.58,NNW,348,6.0,13.0,58,0.00,,,0.00,Wunderground v.1.15,2013-04-01 09:23:00,
2013-04-01 04:28:00,36.5,23.5,29.59,NNW,347,12.0,13.0,59,0.00,,,0.00,Wunderground v.1.15,2013-04-01 09:28:00,
2013-04-01 04:33:00,36.4,23.8,29.59,North,351,6.0,9.0,60,0.00,,,0.00,Wunderground v.1.15,2013-04-01 09:33:00,
2013-04-01 04:38:00,-24.2,-33.6,29.60,NW,324,5.0,10.0,60,0.00,,,0.00,Wunderground v.1.15,2013-04-01 09:38:00,
2013-04-01 04:43:00,36.3,24.1,29.60,NNW,333,7.0,11.0,61,0.00,,,0.00,Wunderground v.1.15,2013-04-01 09:43:00,
2013-04-01 04:48:00,36.0,24.6,29.60,NW,309,5.0,14.0,63,0.00,,,0.00,Wunderground v.1.15,2013-04-01 09:48:00,
2013-04-01 04:53:00,35.6,24.2,29.60,West,279,8.0,19.0,63,0.00,,,0.00,Wunderground v.1.15,2013-04-01 09:53:00,
2013-04-01 04:58:00,35.5,24.1,29.61,West,281,6.0,19.0,63,0.00,,,0.00,Wunderground v.1.15,2013-04-01 09:58:00,
2013-04-01 05:03:00,35.2,24.2,29.61,NW,304,9.0,13.0,64,0.00,,,0.00,Wunderground v.1.15,2013-04-01 10:03:00,
2013-04-01 05:08:00,35.1,24.1,29.62,NW,310,5.0,15.0,64,0.00,,,0.00,Wunderground v.1.15,2013-04-01 10:08:00,
2013-04-01 05:13:00,35.0,24.4,29.61,NW,313,4.0,7.0,65,0.00,,,0.00,Wunderground v.1.15,2013-04-01 10:13:00,
2013-04-01 05:18:00,35.0,24.0,29.62,WNW,284,4.0,8.0,64,0.00,,,0.00,Wunderground v.1.15,2013-04-01 10:18:00,
2013-04-01 05:23:00,35.0,23.7,29.62,NW,307,0.0,8.0,63,0.00,,,0.00,Wunderground v.1.15,2013-04-01 10:23:00,
2013-04-01 05:28:00,35.2,23.5,29.62,NW,321,0.0,10.0,62,0.00,,,0.00,Wunderground v.1.15,2013-04-01 10:28:00,
2013-04-01 05:33:00,35.3,23.6,29.62,NW,313,6.0,15.0,62,0.00,,,0.00,Wunderground v.1.15,2013-04-01 10:33:00,
2013-04-01 05:38:00,35.5,23.8,29.62,WNW,302,8.0,15.0,62,0.00,,,0.00,Wunderground v.1.15,2013-04-01 10:38:00,
2013-04-01 05:43:00,35.5,23.8,29.62,NW,313,8.0,10.0,62,0.00,,,0.00,Wunderground v.1.15,2013-04-01 10:43:00,
2013-04-01 05:48:00,35.5,23.8,29.63,NNW,348,5.0,10.0,62,0.00,,,0.00,Wunderground v.1.15,2013-04-01 10:48:00,
2013-04-01 05:53:00,35.3,24.0,29.62,NNW,343,10.0,14.0,63,0.00,,,0.00,Wunderground v.1.15,2013-04-01 10:53:00,
2013-04-01 05:58:00,35.1,23.8,29.63,WNW,300,9.0,14.0,63,0.00,,,0.00,Wunderground v.1.15,2013-04-01 10:58:00,
2013-04-01 06:03:00,34.9,23.6,29.64,NW,321,6.0,12.0,63,0.00,,,0.00,Wunderground v.1.15,2013-04-01 11:03:00,
2013-04-01 06:08:00,34.7,24.1,29.64,NW,325,5.0,12.0,65,0.00,,,0.00,Wunderground v.1.15,2013-04-01 11:08:00,
2013-04-01 06:13:00,34.3,23.7,29.64,North,360,6.0,13.0,65,0.00,,,0.00,Wunderground v.1.15,2013-04-01 11:13:00,
2013-04-01 06:18:00,33.9,23.7,29.64,NW,323,8.0,14.0,66,0.00,,,0.00,Wunderground v.1.15,2013-04-01 11:18:00,
2013-04-01 06:23:00,33.6,23.4,29.65,North,5,9.0,10.0,66,0.00,,,0.00,Wunderground v.1.15,2013-04-01 11:23:00,
2013-04-01 06:28:00,33.4,24.0,29.65,NNW,340,0.0,11.0,68,0.00,,,0.00,Wunderground v.1.15,2013-04-01 11:28:00,
2013-04-01 06:33:00,33.1,23.7,29.66,NW,321,4.0,10.0,68,0.00,,,0.00,Wunderground v.1.15,2013-04-01 11:33:00,
2013-04-01 06:38:00,32.7,23.6,29.66,North,350,7.0,11.0,69,0.00,,,0.00,Wunderground v.1.15,2013-04-01 11:38:00,
2013-04-01 06:43:00,32.3,23.6,29.66,NNW,337,4.0,9.0,70,0.00,,,0.00,Wunderground v.1.15,2013-04-01 11:43:00,
2013-04-01 06:48:00,32.1,23.4,29.67,NNW,328,8.0,13.0,70,0.00,,,0.00,Wunderground v.1.15,2013-04-01 11:48:00,
2013-04-01 06:53:00,31.9,23.2,29.67,NNW,348,0.0,10.0,70,0.00,,,0.00,Wunderground v.1.15,2013-04-01 11:53:00,
2013-04-01 06:58:00,31.7,23.4,29.67,NNE,18,3.0,13.0,71,0.00,,,0.00,Wunderground v.1.15,2013-04-01 11:58:00,
2013-04-01 07:03:00,31.5,23.2,29.68,NNW,330,0.0,8.0,71,0.00,,,0.00,Wunderground v.1.15,2013-04-01 12:03:00,
2013-04-01 07:08:00,31.5,23.2,29.68,NNW,337,0.0,8.0,71,0.00,,,0.00,Wunderground v.1.15,2013-04-01 12:08:00,
2013-04-01 07:13:00,31.5,23.5,29.68,NNW,327,0.0,7.0,72,0.00,,,0.00,Wunderground v.1.15,2013-04-01 12:13:00,
2013-04-01 07:18:00,31.5,23.5,29.69,NNW,342,4.0,9.0,72,0.00,,,0.00,Wunderground v.1.15,2013-04-01 12:18:00,
2013-04-01 07:23:00,31.4,23.4,29.69,NW,317,1.0,6.0,72,0.00,,,0.00,Wunderground v.1.15,2013-04-01 12:23:00,
2013-04-01 07:28:00,31.4,23.1,29.69,NW,315,5.0,8.0,71,0.00,,,0.00,Wunderground v.1.15,2013-04-01 12:28:00,
2013-04-01 07:33:00,31.5,23.2,29.69,NW,308,0.0,4.0,71,0.00,,,0.00,Wunderground v.1.15,2013-04-01 12:33:00,
2013-04-01 07:38:00,31.6,22.9,29.70,WNW,293,8.0,9.0,70,0.00,,,0.00,Wunderground v.1.15,2013-04-01 12:38:00,
2013-04-01 07:43:00,31.6,22.9,29.70,WNW,295,13.0,13.0,70,0.00,,,0.00,Wunderground v.1.15,2013-04-01 12:43:00,
2013-04-01 07:48:00,31.6,22.9,29.70,NW,313,5.0,13.0,70,0.00,,,0.00,Wunderground v.1.15,2013-04-01 12:48:00,
2013-04-01 07:53:00,33.2,-99.9,29.70,WNW,292,4.0,9.0,255,0.00,,,0.00,Wunderground v.1.15,2013-04-01 12:53:00,
2013-04-01 07:58:00,31.8,23.1,29.71,NW,325,5.0,12.0,70,0.00,,,0.00,Wunderground v.1.15,2013-04-01 12:58:00,
2013-04-01 08:03:00,31.7,23.0,29.71,NNW,333,4.0,9.0,70,0.00,,,0.00,Wunderground v.1.15,2013-04-01 13:03:00,
2013-04-01 08:08:00,32.1,22.7,29.71,NW,310,5.0,11.0,68,0.00,,,0.00,Wunderground v.1.15,2013-04-01 13:08:00,
2013-04-01 08:14:00,32.0,-99.9,29.71,West,267,4.0,15.0,255,0.00,,,0.00,Wunderground v.1.15,2013-04-01 13:14:00,
2013-04-01 08:19:00,32.1,23.1,29.71,NW,323,5.0,15.0,69,0.00,,,0.00,Wunderground v.1.15,2013-04-01 13:19:00,
2013-04-01 08:24:00,32.1,22.7,29.72,NW,306,9.0,15.0,68,0.00,,,0.00,Wunderground v.1.15,2013-04-01 13:24:00,
2013-04-01 08:29:00,32.0,23.0,29.72,NNW,339,4.0,15.0,69,0.00,,,0.00,Wunderground v.1.15,2013-04-01 13:29:00,
2013-04-01 08:34:00,31.9,22.9,29.72,NNW,330,6.0,12.0,69,0.00,,,0.00,Wunderground v.1.15,2013-04-01 13:34:00,
2013-04-01 08:39:00,-999.9,-99.9,29.72,North,355,8.0,14.0,69,0.00,,,0.00,Wunderground v.1.15,2013-04-01 13:39:00,
2013-04-01 08:44:00,32.0,23.0,29.73,NW,308,8.0,13.0,69,0.00,,,0.00,Wunderground v.1.15,2013-04-01 13:44:00,
2013-04-01 08:49:00,32.1,22.7,29.72,NW,316,5.0,13.0,68,0.00,,,0.00,Wunderground v.1.15,2013-04-01 13:49:00,
2013-04-01 08:54:00,32.4,23.0,29.72,NW,314,7.0,9.0,68,0.00,,,0.00,Wunderground v.1.15,2013-04-01 13:54:00,
2013-04-01 08:59:00,32.6,22.8,29.72,West,265,4.0,15.0,67,0.00,,,0.00,Wunderground v.1.15,2013-04-01 13:59:00,
2013-04-01 09:04:00,33.1,-99.9,29.72,NW,318,10.0,14.0,255,0.00,,,0.00,Wunderground v.1.15,2013-04-01 14:04:00,
2013-04-01 09:09:00,33.2,23.4,29.72,NW,313,13.0,14.0,67,0.00,,,0.00,Wunderground v.1.15,2013-04-01 14:09:00,
2013-04-01 09:14:00,33.3,23.2,29.72,WNW,298,2.0,13.0,66,0.00,,,0.00,Wunderground v.1.15,2013-04-01 14:14:00,
2013-04-01 09:19:00,33.2,22.7,29.73,WNW,296,11.0,14.0,65,0.00,,,0.00,Wunderground v.1.15,2013-04-01 14:19:00,
2013-04-01 09:24:00,33.1,22.6,29.73,NW,304,7.0,12.0,65,0.00,,,0.00,Wunderground v.1.15,2013-04-01 14:24:00,
2013-04-01 09:29:00,34.1,23.2,29.73,NW,307,4.0,12.0,64,0.00,,,0.00,Wunderground v.1.15,2013-04-01 14:29:00,
2013-04-01 09:34:00,33.7,22.8,29.73,WNW,295,4.0,11.0,64,0.00,,,0.00,Wunderground v.1.15,2013-04-01 14:34:00,
2013-04-01 09:39:00,33.9,23.4,29.73,NNW,345,7.0,11.0,65,0.00,,,0.00,Wunderground v.1.15,2013-04-01 14:39:00,
2013-04-01 09:44:00,34.1,23.2,29.73,NNW,344,0.0,12.0,64,0.00,,,0.00,Wunderground v.1.15,2013-04-01 14:44:00,
2013-04-01 09:49:00,34.1,23.6,29.73,NW,326,2.0,12.0,65,0.00,,,0.00,Wunderground v.1.15,2013-04-01 14:49:00,
2013-04-01 09:54:00,34.2,23.3,29.73,North,350,0.0,11.0,64,0.00,,,0.00,Wunderground v.1.15,2013-04-01 14:54:00,
2013-04-01 09:59:00,34.5,23.2,29.74,North,9,3.0,18.0,63,0.00,,,0.00,Wunderground v.1.15,2013-04-01 14:59:00,
2013-04-01 10:04:00,34.4,23.1,29.73,NW,323,4.0,14.0,63,0.00,,,0.00,Wunderground v.1.15,2013-04-01 15:04:00,
2013-04-01 10:09:00,34.5,23.2,29.73,WNW,286,1.0,14.0,63,0.00,,,0.00,Wunderground v.1.15,2013-04-01 15:09:00,
2013-04-01 10:14:00,35.0,23.3,29.74,WNW,296,7.0,17.0,62,0.00,,,0.00,Wunderground v.1.15,2013-04-01 15:14:00,
2013-04-01 10:19:00,35.2,23.1,29.74,West,273,6.0,17.0,61,0.00,,,0.00,Wunderground v.1.15,2013-04-01 15:19:00,
2013-04-01 10:24:00,35.4,22.5,29.73,NNW,333,2.0,8.0,59,0.00,,,0.00,Wunderground v.1.15,2013-04-01 15:24:00,
2013-04-01 10:29:00,35.1,22.6,29.74,WNW,293,7.0,13.0,60,0.00,,,0.00,Wunderground v.1.15,2013-04-01 15:29:00,
2013-04-01 10:34:00,35.5,24.1,29.74,West,281,9.0,11.0,63,0.00,,,0.00,Wunderground v.1.15,2013-04-01 15:34:00,
2013-04-01 10:39:00,36.0,-99.9,29.74,North,355,8.0,12.0,255,0.00,,,0.00,Wunderground v.1.15,2013-04-01 15:39:00,
2013-04-01 10:44:00,36.2,24.8,29.74,NW,317,11.0,14.0,63,0.00,,,0.00,Wunderground v.1.15,2013-04-01 15:44:00,
2013-04-01 10:49:00,36.1,23.1,29.74,North,5,9.0,19.0,59,0.00,,,0.00,Wunderground v.1.15,2013-04-01 15:49:00,
2013-04-01 10:54:00,36.3,23.3,29.74,NW,304,8.0,12.0,59,0.00,,,0.00,Wunderground v.1.15,2013-04-01 15:54:00,
2013-04-01 10:59:00,-999.9,-99.9,29.74,West,280,5.0,12.0,57,0.00,,,0.00,Wunderground v.1.15,2013-04-01 15:59:00,
2013-04-01 11:04:00,36.5,23.5,29.74,NNW,338,10.0,15.0,59,0.00,,,0.00,Wunderground v.1.15,2013-04-01 16:04:00,
2013-04-01 11:09:00,36.5,22.3,29.74,NNW,331,13.0,15.0,56,0.00,,,0.00,Wunderground v.1.15,2013-04-01 16:09:00,
2013-04-01 11:14:00,36.6,21.5,29.74,North,5,0.0,11.0,54,0.00,,,0.00,Wunderground v.1.15,2013-04-01 16:14:00,
2013-04-01 11:19:00,37.1,23.3,29.74,North,5,9.0,12.0,57,0.00,,,0.00,Wunderground v.1.15,2013-04-01 16:19:00,
2013-04-01 11:24:00,37.7,23.0,29.74,North,355,2.0,12.0,55,0.00,,,0.00,Wunderground v.1.15,2013-04-01 16:24:00,
2013-04-01 11:29:00,37.9,21.8,29.74,WNW,302,0.0,15.0,52,0.00,,,0.00,Wunderground v.1.15,2013-04-01 16:29:00,
2013-04-01 11:34:00,38.6,23.4,29.74,NW,325,2.0,11.0,54,0.00,,,0.00,Wunderground v.1.15,2013-04-01 16:34:00,
2013-04-01 11:39:00,38.8,23.6,29.74,North,5,0.0,13.0,54,0.00,,,0.00,Wunderground v.1.15,2013-04-01 16:39:00,
2013-04-01 11:44:00,38.9,-99.9,29.74,WNW,302,7.0,13.0,255,0.00,,,0.00,Wunderground v.1.15,2013-04-01 16:44:00,
2013-04-01 11:49:00,38.4,22.3,29.74,NW,313,5.0,13.0,52,0.00,,,0.00,Wunderground v.1.15,2013-04-01 16:49:00,
2013-04-01 11:54:00,39.7,24.0,29.74,North,350,5.0,14.0,53,0.00,,,0.00,Wunderground v.1.15,2013-04-01 16:54:00,
2013-04-01 11:59:00,38.3,21.3,29.74,NW,324,5.0,14.0,50,0.00,,,0.00,Wunderground v.1.15,2013-04-01 16:59:00,
2013-04-01 12:04:00,38.5,22.4,29.74,North,5,8.0,17.0,52,0.00,,,0.00,Wunderground v.1.15,2013-04-01 17:04:00,
2013-04-01 12:09:00,38.7,22.6,29.74,West,275,9.0,17.0,52,0.00,,,0.00,Wunderground v.1.15,2013-04-01 17:09:00,
2013-04-01 12:14:00,38.8,23.1,29.74,WNW,290,4.0,12.0,53,0.00,,,0.00,Wunderground v.1.15,2013-04-01 17:14:00,
2013-04-01 12:19:00,39.6,22.9,29.74,WNW,297,2.0,12.0,51,0.00,,,0.00,Wunderground v.1.15,2013-04-01 17:19:00,
2013-04-01 12:24:00,39.8,22.2,29.74,North,5,5.0,13.0,49,0.00,,,0.00,Wunderground v.1.15,2013-04-01 17:24:00,
2013-04-01 12:29:00,39.6,21.5,29.74,NNE,24,4.0,15.0,48,0.00,,,0.00,Wunderground v.1.15,2013-04-01 17:29:00,
2013-04-01 12:34:00,39.3,21.2,29.74,West,280,4.0,19.0,48,0.00,,,0.00,Wunderground v.1.15,2013-04-01 17:34:00,
2013-04-01 12:39:00,39.3,22.7,29.74,WNW,284,5.0,19.0,51,0.00,,,0.00,Wunderground v.1.15,2013-04-01 17:39:00,
2013-04-01 12:44:00,39.7,22.6,29.73,North,355,9.0,13.0,50,0.00,,,0.00,Wunderground v.1.15,2013-04-01 17:44:00,
2013-04-01 12:49:00,39.9,21.8,29.74,North,355,9.0,13.0,48,0.00,,,0.00,Wunderground v.1.15,2013-04-01 17:49:00,
2013-04-01 12:54:00,40.2,22.1,29.74,WNW,294,12.0,12.0,48,0.00,,,0.00,Wunderground v.1.15,2013-04-01 17:54:00,
2013-04-01 12:59:00,40.3,22.1,29.73,NW,313,4.0,12.0,48,0.00,,,0.00,Wunderground v.1.15,2013-04-01 17:59:00,
2013-04-01 13:04:00,40.7,22.0,29.73,NNW,339,5.0,12.0,47,0.00,,,0.00,Wunderground v.1.15,2013-04-01 18:04:00,
2013-04-01 13:09:00,41.1,21.3,29.73,NNW,338,4.0,17.0,45,0.00,,,0.00,Wunderground v.1.15,2013-04-01 18:09:00,
2013-04-01 13:14:00,40.9,20.6,29.73,WSW,238,0.0,10.0,44,0.00,,,0.00,Wunderground v.1.15,2013-04-01 18:14:00,
2013-04-01 13:19:00,41.3,20.5,29.74,NNW,344,7.0,12.0,43,0.00,,,0.00,Wunderground v.1.15,2013-04-01 18:19:00,
2013-04-01 13:24:00,41.5,21.7,29.74,WNW,284,11.0,14.0,45,0.00,,,0.00,Wunderground v.1.15,2013-04-01 18:24:00,
2013-04-01 13:29:00,41.9,-99.9,29.73,NW,312,6.0,16.0,255,0.00,,,0.00,Wunderground v.1.15,2013-04-01 18:29:00,
2013-04-01 13:34:00,41.8,21.5,29.73,NW,314,9.0,15.0,44,0.00,,,0.00,Wunderground v.1.15,2013-04-01 18:34:00,
2013-04-01 13:39:00,41.7,21.4,29.74,NW,305,11.0,18.0,44,0.00,,,0.00,Wunderground v.1.15,2013-04-01 18:39:00,
2013-04-01 13:44:00,42.3,19.7,29.74,West,279,7.0,12.0,40,0.00,,,0.00,Wunderground v.1.15,2013-04-01 18:44:00,
2013-04-01 13:49:00,-999.9,-99.9,29.73,NNW,343,5.0,15.0,255,0.00,,,0.00,Wunderground v.1.15,2013-04-01 18:49:00,
2013-04-01 13:54:00,42.2,20.7,29.73,NW,314,0.0,10.0,42,0.00,,,0.00,Wunderground v.1.15,2013-04-01 18:54:00,
2013-04-01 13:59:00,-999.9,-99.9,29.73,North,9,7.0,10.0,42,0.00,,,0.00,Wunderground v.1.15,2013-04-01 18:59:00,
2013-04-01 14:04:00,42.5,20.4,29.73,NNW,343,13.0,17.0,41,0.00,,,0.00,Wunderground v.1.15,2013-04-01 19:04:00,
2013-04-01 14:08:00,42.1,20.1,29.73,NW,315,6.0,21.0,41,0.00,,,0.00,Wunderground v.1.15,2013-04-01 19:08:00,
2013-04-01 14:13:00,42.4,21.5,29.73,WNW,292,0.0,9.0,43,0.00,,,0.00,Wunderground v.1.15,2013-04-01 19:13:00,
2013-04-01 14:18:00,43.0,21.4,29.73,NW,322,4.0,13.0,42,0.00,,,0.00,Wunderground v.1.15,2013-04-01 19:18:00,
2013-04-01 14:24:00,43.4,21.2,29.73,NNW,334,2.0,8.0,41,0.00,,,0.00,Wunderground v.1.15,2013-04-01 19:24:00,
2013-04-01 14:29:00,43.4,21.2,29.73,WNW,303,4.0,12.0,41,0.00,,,0.00,Wunderground v.1.15,2013-04-01 19:29:00,
2013-04-01 14:34:00,43.6,21.4,29.73,WNW,295,5.0,11.0,41,0.00,,,0.00,Wunderground v.1.15,2013-04-01 19:34:00,
2013-04-01 14:39:00,43.3,20.6,29.73,West,270,0.0,11.0,40,0.00,,,0.00,Wunderground v.1.15,2013-04-01 19:39:00,
2013-04-01 14:44:00,43.5,19.5,29.73,West,275,9.0,15.0,38,0.00,,,0.00,Wunderground v.1.15,2013-04-01 19:44:00,
2013-04-01 14:48:00,-999.9,-99.9,29.72,WNW,296,7.0,15.0,38,0.00,,,0.00,Wunderground v.1.15,2013-04-01 19:48:00,
2013-04-01 14:53:00,44.4,21.0,29.72,NNE,26,1.0,8.0,39,0.00,,,0.00,Wunderground v.1.15,2013-04-01 19:53:00,
2013-04-01 14:58:00,44.0,20.0,29.72,NW,316,10.0,13.0,38,0.00,,,0.00,Wunderground v.1.15,2013-04-01 19:58:00,
2013-04-01 15:03:00,43.5,19.5,29.72,NW,313,4.0,11.0,38,0.00,,,0.00,Wunderground v.1.15,2013-04-01 20:03:00,
2013-04-01 15:08:00,44.1,-99.9,29.72,North,355,2.0,11.0,255,0.00,,,0.00,Wunderground v.1.15,2013-04-01 20:08:00,
2013-04-01 15:13:00,44.3,20.9,29.72,West,268,13.0,18.0,39,0.00,,,0.00,Wunderground v.1.15,2013-04-01 20:13:00,
2013-04-01 15:18:00,44.4,19.7,29.72,North,350,4.0,18.0,37,0.00,,,0.00,Wunderground v.1.15,2013-04-01 20:18:00,
2013-04-01 15:23:00,43.9,19.9,29.72,North,360,5.0,8.0,38,0.00,,,0.00,Wunderground v.1.15,2013-04-01 20:23:00,
2013-04-01 15:28:00,43.8,19.2,29.73,NW,317,7.0,19.0,37,0.00,,,0.00,Wunderground v.1.15,2013-04-01 20:28:00,
2013-04-01 15:33:00,44.1,20.1,29.72,NW,318,1.0,8.0,38,0.00,,,0.00,Wunderground v.1.15,2013-04-01 20:33:00,
2013-04-01 15:38:00,44.7,19.3,29.72,NNW,342,1.0,11.0,36,0.00,,,0.00,Wunderground v.1.15,2013-04-01 20:38:00,
2013-04-01 15:43:00,44.7,20.0,29.72,North,350,0.0,9.0,37,0.00,,,0.00,Wunderground v.1.15,2013-04-01 20:43:00,
2013-04-01 15:48:00,44.8,19.4,29.72,West,266,2.0,13.0,36,0.00,,,0.00,Wunderground v.1.15,2013-04-01 20:48:00,
2013-04-01 15:53:00,45.1,19.0,29.72,WNW,292,0.0,12.0,35,0.00,,,0.00,Wunderground v.1.15,2013-04-01 20:53:00,
2013-04-01 15:58:00,45.2,19.8,29.72,West,259,0.0,12.0,36,0.00,,,0.00,Wunderground v.1.15,2013-04-01 20:58:00,
2013-04-01 16:03:00,44.9,19.5,29.72,North,355,2.0,13.0,36,0.00,,,0.00,Wunderground v.1.15,2013-04-01 21:03:00,
2013-04-01 16:08:00,44.7,18.7,29.72,NNW,340,1.0,13.0,35,0.00,,,0.00,Wunderground v.1.15,2013-04-01 21:08:00,
2013-04-01 16:13:00,44.7,19.3,29.72,WNW,300,0.0,10.0,36,0.00,,,0.00,Wunderground v.1.15,2013-04-01 21:13:00,
2013-04-01 16:18:00,44.9,20.2,29.72,WNW,289,0.0,10.0,37,0.00,,,0.00,Wunderground v.1.15,2013-04-01 21:18:00,
2013-04-01 16:23:00,45.1,19.0,29.72,North,355,14.0,15.0,35,0.00,,,0.00,Wunderground v.1.15,2013-04-01 21:23:00,
2013-04-01 16:28:00,44.9,18.9,29.72,North,5,8.0,15.0,35,0.00,,,0.00,Wunderground v.1.15,2013-04-01 21:28:00,
2013-04-01 16:33:00,44.8,19.4,29.72,WNW,294,7.0,10.0,36,0.00,,,0.00,Wunderground v.1.15,2013-04-01 21:33:00,
2013-04-01 16:38:00,45.0,19.0,29.72,West,277,9.0,15.0,35,0.00,,,0.00,Wunderground v.1.15,2013-04-01 21:38:00,
2013-04-01 16:43:00,44.9,19.5,29.72,West,281,15.0,19.0,36,0.00,,,0.00,Wunderground v.1.15,2013-04-01 21:43:00,
2013-04-01 16:48:00,44.9,18.9,29.71,West,274,2.0,19.0,35,0.00,,,0.00,Wunderground v.1.15,2013-04-01 21:48:00,
2013-04-01 16:53:00,45.3,19.2,29.71,WNW,302,6.0,13.0,35,0.00,,,0.00,Wunderground v.1.15,2013-04-01 21:53:00,
2013-04-01 16:58:00,45.5,19.4,29.71,NW,312,0.0,13.0,35,0.00,,,0.00,Wunderground v.1.15,2013-04-01 21:58:00,